Date,TemperatureHighF,TemperatureAvgF,TemperatureLowF,DewpointHighF,DewpointAvgF,DewpointLowF,HumidityHigh,HumidityAvg,HumidityLow,PressureMaxIn,PressureMinIn,WindSpeedMaxMPH,WindSpeedAvgMPH,GustSpeedMaxMPH,PrecipitationSumIn
2013-1-1,37.2,31.4,20.6,24.6,17.1,5.4,67,55,42,29.90,29.70,18,1,20,0.00
2013-1-2,30.4,20.8,12.8,13.3,7.3,0.9,72,56,46,30.08,29.87,17,1,17,0.00
2013-1-3,24.2,15.8,4.7,10.3,-1.6,-8.0,70,47,24,30.11,29.98,12,0,13,0.00
2013-1-4,38.0,27.7,11.9,22.1,17.0,7.7,89,65,46,29.98,29.80,13,1,15,0.01
2013-1-5,41.3,31.7,21.4,22.7,19.2,16.8,86,61,40,30.23,29.84,18,0,18,0.02
2013-1-6,42.5,31.3,21.9,29.1,24.5,17.9,92,77,54,30.19,29.90,11,0,11,0.02
2013-1-7,39.5,31.6,20.5,32.2,22.0,14.7,91,69,43,30.37,29.93,14,1,14,0.00
2013-1-8,46.8,34.1,18.8,29.1,25.1,16.1,92,72,46,30.35,30.24,14,1,15,0.00
2013-1-9,44.6,34.5,21.6,35.4,28.2,19.4,93,79,61,30.36,29.98,12,1,12,0.01
2013-1-10,45.2,40.2,29.5,30.5,23.3,20.2,72,51,38,30.49,30.03,20,1,20,0.00
2013-1-11,38.3,33.4,25.4,35.6,26.9,20.7,95,77,63,30.49,30.16,6,0,6,0.18
2013-1-12,42.9,40.1,36.9,42.0,39.1,35.6,97,96,95,30.18,30.08,5,0,5,0.04
2013-1-13,50.2,45.8,40.3,49.3,44.9,39.5,97,97,95,30.11,29.97,5,0,6,0.01
2013-1-14,59.3,50.5,39.9,53.0,42.5,27.3,96,76,39,30.20,29.86,10,1,11,0.00
2013-1-15,40.2,36.3,31.5,31.3,26.8,23.9,82,69,55,30.27,30.18,11,0,11,0.03
2013-1-16,33.7,31.9,30.1,31.8,29.3,23.6,96,90,67,30.21,29.77,8,0,8,0.08
2013-1-17,40.3,34.5,29.5,31.9,26.9,14.8,96,75,50,30.04,29.81,14,1,14,0.19
2013-1-18,30.6,22.6,18.8,16.8,1.5,-6.7,56,40,26,30.43,30.00,16,2,17,0.00
2013-1-19,46.8,35.8,19.2,32.2,21.7,3.6,72,57,41,30.37,29.86,18,2,19,0.06
2013-1-20,53.3,42.1,27.8,33.6,25.1,7.0,72,52,28,29.89,29.52,20,2,20,0.01
2013-1-21,27.8,24.5,20.5,21.1,9.9,3.1,89,56,37,30.07,29.76,14,0,14,0.00
2013-1-22,23.0,19.3,11.6,20.1,5.9,-6.5,90,59,28,30.05,29.72,19,1,19,0.00
2013-1-23,14.6,10.2,5.4,1.1,-7.3,-11.9,65,45,32,30.13,30.04,13,0,16,0.00
2013-1-24,19.2,10.2,1.3,-7.5,-9.8,-12.0,60,40,26,30.21,30.04,19,1,19,0.00
2013-1-25,23.0,15.4,6.5,11.7,-6.2,-12.0,81,38,22,30.29,30.02,10,0,14,0.00
2013-1-26,23.3,16.3,9.9,12.1,2.3,-10.3,87,57,27,30.21,29.97,20,2,20,0.00
2013-1-27,29.5,20.6,11.4,3.8,0.4,-2.4,61,42,25,30.43,30.21,17,1,17,0.00
2013-1-28,29.8,24.3,17.0,26.9,12.1,-1.0,94,63,31,30.43,29.97,5,0,5,0.00
2013-1-29,33.1,30.0,25.7,31.8,28.4,24.0,96,94,91,30.15,29.97,7,0,7,0.15
2013-1-30,59.5,48.4,32.8,56.3,46.8,31.8,99,94,86,30.12,29.43,21,2,21,0.06
2013-1-31,59.2,48.4,0.0,56.9,37.1,0.0,94,67,32,29.57,28.96,18,4,18,0.44
2013-2-1,31.3,27.5,21.0,15.6,8.0,1.9,59,44,30,30.06,29.57,12,1,13,0.00
2013-2-2,29.3,23.6,16.9,12.5,5.9,0.8,56,47,33,30.23,30.02,8,0,8,0.00
2013-2-3,27.6,24.0,20.0,20.6,18.4,12.0,88,79,57,30.03,29.69,8,1,9,0.00
2013-2-4,28.8,23.2,18.9,20.0,9.8,2.1,88,58,32,29.93,29.69,14,0,14,0.00
2013-2-5,25.1,23.1,20.0,21.6,14.5,8.6,90,70,58,30.00,29.90,5,0,5,0.00
2013-2-6,38.3,29.4,24.1,27.2,18.1,2.5,91,66,37,30.26,29.88,6,0,6,0.04
2013-2-7,30.1,23.5,16.1,12.4,4.0,-1.0,70,44,27,30.49,30.26,10,1,10,0.00
2013-2-8,31.8,29.2,21.9,30.6,25.1,12.0,98,85,62,30.45,29.67,27,3,27,0.01
2013-2-9,21.3,17.6,13.6,19.3,12.5,4.0,94,81,64,30.16,29.44,19,7,34,0.00
2013-2-10,38.3,21.3,7.9,16.1,6.9,-0.4,86,56,23,30.36,30.16,14,0,14,0.05
2013-2-11,44.9,33.2,13.6,44.3,31.1,10.2,98,92,80,30.33,29.56,10,0,10,0.39
2013-2-12,43.3,38.0,30.9,41.1,27.8,23.3,97,68,49,29.86,29.57,16,1,16,0.00
2013-2-13,43.2,34.0,23.8,26.4,22.9,19.0,86,65,44,29.84,29.65,8,0,11,0.00
2013-2-14,43.9,34.7,28.8,27.3,21.8,16.7,91,61,34,29.97,29.67,14,1,14,0.01
2013-2-15,48.5,38.0,27.9,37.3,31.2,22.2,94,78,54,29.98,29.88,9,1,10,0.00
2013-2-16,35.6,32.4,28.8,31.7,27.6,17.3,96,83,56,29.91,29.63,17,2,18,0.02
2013-2-17,29.8,20.9,16.1,22.1,10.0,-2.0,90,66,33,29.67,29.35,22,4,25,0.00
2013-2-18,30.3,21.3,13.6,3.6,-1.6,-5.0,50,37,22,30.15,29.67,16,1,16,0.00
2013-2-19,46.2,35.6,21.0,43.2,25.0,-2.2,96,67,34,30.15,29.55,11,1,12,0.41
2013-2-20,41.1,31.4,25.0,40.0,17.8,6.4,96,59,37,29.76,29.51,19,1,19,0.01
2013-2-21,33.2,27.3,23.5,14.8,12.2,9.8,62,53,40,30.16,29.75,21,2,24,0.00
2013-2-22,37.5,30.5,23.6,24.4,19.5,14.6,78,64,49,30.34,30.16,27,2,27,0.00
2013-2-23,37.8,33.0,29.1,32.7,27.6,23.3,95,81,66,30.29,29.85,10,1,10,0.29
2013-2-24,37.6,34.0,30.4,36.6,32.7,28.9,96,95,93,29.85,29.63,16,3,16,0.46
2013-2-25,39.1,33.9,29.3,30.7,28.8,26.5,95,82,62,30.21,29.85,12,1,12,0.07
2013-2-26,43.8,36.4,29.0,34.4,28.2,23.6,94,73,46,30.30,30.10,9,1,10,0.00
2013-2-27,42.2,39.4,36.0,40.8,37.7,29.8,97,93,78,30.10,29.52,24,3,24,1.18
2013-2-28,44.8,37.3,32.5,37.9,34.5,31.0,97,90,71,29.61,29.48,5,0,6,0.00
2013-3-1,42.3,37.2,31.6,34.7,29.0,24.9,96,74,55,29.64,29.49,13,2,16,0.00
2013-3-2,40.3,36.7,32.4,27.7,25.5,24.0,74,64,54,29.65,29.58,10,1,11,0.00
2013-3-3,41.2,35.2,30.7,29.4,25.8,23.5,89,69,54,29.61,29.52,8,1,8,0.00
2013-3-4,39.6,33.4,27.8,28.2,22.0,18.7,88,63,49,29.71,29.56,22,1,22,0.00
2013-3-5,43.9,36.0,30.6,31.1,25.6,21.1,89,66,51,30.03,29.71,14,2,14,0.00
2013-3-6,39.5,36.2,33.1,34.9,31.9,28.2,93,84,67,30.05,29.99,25,4,26,0.13
2013-3-7,35.6,31.4,29.4,31.1,29.8,28.4,97,94,78,29.99,29.93,28,7,28,0.20
2013-3-8,33.4,30.4,28.7,32.7,29.4,26.9,98,96,82,30.10,29.89,21,5,21,0.13
2013-3-9,42.5,34.9,29.0,28.8,25.2,19.6,91,68,52,30.32,30.10,15,2,16,0.12
2013-3-10,44.1,35.4,28.2,33.0,28.9,26.2,92,78,55,30.39,30.30,8,1,8,0.01
2013-3-11,50.1,41.3,34.9,39.7,35.8,31.2,92,81,65,30.31,30.13,10,1,10,0.00
2013-3-12,56.5,49.2,40.6,52.5,46.5,39.5,96,91,77,30.14,29.70,21,2,21,0.55
2013-3-13,51.0,43.2,31.8,49.9,30.7,18.9,96,64,31,29.76,29.67,13,1,14,0.00
2013-3-14,34.3,30.3,22.7,26.4,14.3,3.7,80,52,34,29.82,29.69,20,1,21,0.00
2013-3-15,40.1,30.0,20.6,26.6,12.0,1.1,75,49,21,29.86,29.62,13,1,16,0.00
2013-3-16,39.6,33.9,27.6,26.1,14.9,3.0,75,48,23,29.84,29.67,12,1,12,0.00
2013-3-17,37.8,30.9,23.5,19.7,10.5,0.2,70,45,23,30.28,29.84,16,1,18,0.00
2013-3-18,37.2,28.2,18.8,24.1,7.1,-2.9,80,42,25,30.43,30.20,10,1,11,0.00
2013-3-19,37.0,32.3,28.2,35.4,30.5,24.1,95,93,81,30.20,29.55,17,3,21,0.70
2013-3-20,38.2,31.6,26.1,26.7,19.3,14.6,91,62,39,29.80,29.67,16,1,17,0.13
2013-3-21,34.9,30.5,24.5,27.5,22.2,16.0,90,72,51,29.81,29.58,11,1,11,0.02
2013-3-22,39.5,33.2,26.7,26.1,18.0,12.8,85,54,35,29.74,29.59,12,1,12,0.00
2013-3-23,42.8,35.3,29.0,22.7,18.6,13.5,72,52,31,29.79,29.64,24,1,24,0.00
2013-3-24,46.7,37.9,30.1,26.4,21.0,17.6,73,52,33,29.82,29.70,16,1,16,0.00
2013-3-25,40.3,35.4,31.0,33.0,29.1,25.5,91,78,67,29.75,29.45,22,3,22,0.05
2013-3-26,47.0,39.3,33.8,31.1,25.2,19.2,86,59,33,29.75,29.47,16,2,18,0.01
2013-3-27,52.2,42.4,30.1,28.7,22.1,17.7,69,46,27,29.82,29.70,14,1,18,0.00
2013-3-28,47.0,41.4,36.5,33.9,31.1,27.4,88,68,48,29.98,29.82,16,2,19,0.00
2013-3-29,55.9,46.6,36.0,33.0,29.1,22.6,81,53,28,30.00,29.92,17,1,17,0.00
2013-3-30,55.6,45.4,37.2,31.4,24.9,11.0,73,48,17,30.05,29.96,13,1,20,0.00
2013-3-31,57.2,44.3,28.7,42.4,28.2,19.3,92,59,24,30.08,29.68,12,2,14,0.05
2013-4-1,59.3,46.4,34.3,45.1,37.1,12.3,96,72,37,29.77,29.46,14,2,20,0.31
2013-4-2,39.9,33.6,28.1,17.4,12.5,4.6,58,42,23,29.93,29.75,19,1,21,0.00
2013-4-3,44.5,35.9,29.8,16.5,11.7,6.9,56,38,23,30.13,29.91,17,2,17,0.00
2013-4-4,54.5,40.6,28.2,29.1,16.3,7.2,72,40,16,30.27,30.03,12,1,12,0.00
2013-4-5,59.6,45.9,37.3,31.0,26.2,15.8,74,50,19,30.05,29.57,18,1,27,0.00
2013-4-6,45.7,38.1,30.6,25.5,11.9,-1.6,74,37,14,30.30,29.81,19,2,21,0.00
2013-4-7,50.1,40.3,26.3,41.0,29.7,20.1,87,68,36,30.30,29.98,18,2,18,0.00
2013-4-8,66.0,53.1,42.5,43.5,39.6,32.7,94,64,29,30.05,29.92,11,1,11,0.00
2013-4-9,74.2,57.0,47.0,51.4,42.6,37.8,95,63,30,30.04,29.81,17,1,18,0.00
2013-4-10,65.6,52.9,44.1,47.5,44.4,41.1,94,75,50,29.96,29.80,9,0,11,0.17
2013-4-11,52.6,47.4,43.3,46.0,41.0,30.3,95,80,54,30.08,29.77,12,2,13,0.01
2013-4-12,44.9,39.1,37.0,38.2,34.2,28.6,94,83,63,30.11,29.72,22,3,25,0.38
2013-4-13,53.2,44.6,35.8,39.2,34.8,31.2,94,71,45,29.89,29.69,18,2,18,0.02
2013-4-14,52.3,45.1,37.9,41.6,31.3,23.2,90,61,33,30.18,29.88,17,1,19,0.00
2013-4-15,56.5,45.3,34.0,36.8,30.9,26.2,83,59,33,30.36,30.16,8,1,8,0.00
2013-4-16,58.7,49.7,35.3,48.0,40.9,33.2,93,73,54,30.37,30.05,13,3,17,0.00
2013-4-17,66.4,57.5,44.6,51.1,38.3,24.1,83,54,21,30.28,30.03,13,2,16,0.00
2013-4-18,61.0,50.1,37.6,45.7,35.2,23.1,94,62,29,30.37,30.11,13,2,13,0.00
2013-4-19,70.1,60.3,50.8,61.7,56.7,43.1,97,88,68,30.14,29.65,16,3,19,0.02
2013-4-20,63.2,54.0,44.6,61.5,41.4,24.6,95,66,36,30.17,29.58,19,2,19,0.39
2013-4-21,52.5,42.7,32.5,31.6,22.2,15.1,77,46,23,30.64,30.13,17,2,17,0.00
2013-4-22,50.7,42.2,32.8,33.8,29.4,21.1,91,63,32,30.69,30.54,19,2,20,0.00
2013-4-23,41.9,40.6,38.0,40.2,37.5,30.0,95,89,71,30.55,30.05,21,4,21,0.05
2013-4-24,71.5,51.8,41.2,49.0,43.1,39.6,96,76,35,30.08,29.77,18,3,19,0.01
2013-4-25,63.4,54.7,45.8,51.0,33.6,20.8,92,50,21,30.22,29.82,13,1,14,0.04
2013-4-26,62.6,51.8,41.6,39.3,33.9,25.4,82,52,29,30.38,30.20,12,1,14,0.00
2013-4-27,62.3,49.4,36.6,42.9,35.9,31.2,95,64,34,30.38,30.26,8,0,11,0.00
2013-4-28,66.8,52.8,36.5,44.3,32.4,23.6,93,52,25,30.30,30.20,11,1,12,0.00
2013-4-29,64.8,54.2,44.1,46.2,35.1,16.6,93,55,18,30.24,30.17,11,1,11,0.00
2013-4-30,68.9,54.6,39.5,42.5,29.9,16.5,92,46,15,30.32,30.21,10,0,11,0.00
2013-5-1,68.1,55.0,37.5,44.1,34.2,27.1,92,51,26,30.42,30.30,12,1,12,0.00
2013-5-2,76.3,56.9,41.1,45.6,39.1,32.5,93,58,21,30.43,30.28,16,1,18,0.00
2013-5-3,57.0,49.2,40.9,42.0,39.5,36.2,88,70,56,30.47,30.33,18,2,18,0.00
2013-5-4,58.3,48.8,39.3,47.2,35.8,25.5,94,65,29,30.34,30.25,19,2,19,0.00
2013-5-5,61.2,49.0,36.6,45.5,38.1,34.9,95,69,42,30.29,30.20,12,2,14,0.00
2013-5-6,70.9,53.9,40.9,49.1,43.7,38.1,92,72,36,30.25,30.10,10,0,10,0.00
2013-5-7,75.3,60.3,43.8,59.7,50.8,42.5,96,74,47,30.14,30.05,7,0,8,0.00
2013-5-8,72.3,62.4,53.6,61.2,57.0,51.6,96,83,56,30.14,30.00,18,1,18,0.22
2013-5-9,67.4,60.2,57.5,61.6,57.9,55.9,97,93,68,30.01,29.82,7,0,7,0.49
2013-5-10,78.6,65.8,53.9,59.2,54.1,48.1,97,70,35,29.92,29.84,8,0,8,0.01
2013-5-11,70.1,61.3,56.6,60.4,57.3,52.9,96,87,64,29.88,29.66,12,1,12,0.10
2013-5-12,71.3,59.9,47.6,60.3,50.6,32.0,96,75,35,29.78,29.52,7,0,11,0.02
2013-5-13,59.5,50.2,41.1,36.0,29.2,24.0,72,46,27,29.99,29.75,12,1,12,0.00
2013-5-14,58.0,49.5,39.9,34.3,29.7,23.6,71,48,27,30.01,29.94,11,1,11,0.00
2013-5-15,63.1,52.1,36.9,51.6,39.0,27.6,90,64,28,30.02,29.64,13,1,13,0.01
2013-5-16,80.7,66.9,48.8,51.4,42.1,31.1,94,47,17,29.74,29.59,10,1,11,0.00
2013-5-17,68.1,59.4,49.5,49.1,40.8,32.9,82,52,29,30.18,29.73,17,2,17,0.00
2013-5-18,70.9,59.8,45.8,47.6,42.7,33.6,89,57,26,30.26,30.17,7,0,7,0.00
2013-5-19,69.8,57.9,46.8,53.6,48.8,44.0,95,74,46,30.30,30.18,7,0,8,0.07
2013-5-20,82.0,68.6,55.0,65.5,60.1,53.0,96,77,48,30.20,29.87,8,0,10,0.03
2013-5-21,87.4,66.5,51.1,66.8,59.7,49.4,95,81,47,29.95,29.80,14,1,14,0.59
2013-5-22,72.5,59.7,50.5,63.9,55.5,48.8,96,87,73,29.97,29.83,16,1,16,0.01
2013-5-23,76.5,66.1,57.8,66.8,62.6,56.0,96,89,69,29.89,29.77,11,0,12,0.06
2013-5-24,66.9,61.4,48.9,64.9,59.7,47.2,97,94,88,29.79,29.62,16,1,16,0.88
2013-5-25,51.0,47.1,40.3,48.8,45.3,37.9,96,94,90,29.77,29.67,13,2,17,0.21
2013-5-26,58.4,48.6,39.5,40.1,37.9,35.0,93,69,43,30.08,29.71,20,1,24,0.02
2013-5-27,70.8,57.5,40.2,45.9,37.8,29.3,92,54,22,30.13,30.03,14,1,16,0.00
2013-5-28,75.3,60.5,44.5,55.0,45.2,36.9,94,61,27,30.19,30.11,8,0,8,0.00
2013-5-29,74.0,63.8,57.3,64.4,59.6,53.3,96,87,71,30.15,29.94,6,0,6,0.74
2013-5-30,87.8,75.2,63.1,68.8,65.3,61.9,96,74,46,30.04,29.97,10,0,10,0.19
2013-5-31,91.2,80.6,66.6,69.1,64.6,58.4,89,61,34,30.05,29.91,5,0,6,0.00
2013-6-1,88.8,78.2,67.1,67.7,63.4,58.5,84,62,38,29.95,29.84,10,0,10,0.00
2013-6-2,84.0,73.5,64.3,67.4,63.8,61.2,90,73,52,29.88,29.73,10,1,10,0.00
2013-6-3,73.5,66.5,59.8,66.7,63.3,58.1,95,90,75,29.81,29.73,4,0,6,1.01
2013-6-4,69.8,60.6,49.6,57.9,45.5,39.9,94,60,35,30.04,29.78,13,1,13,0.00
2013-6-5,73.7,61.9,48.9,50.4,45.9,39.4,93,59,32,30.15,30.02,7,0,8,0.00
2013-6-6,72.0,62.7,52.6,55.9,49.9,41.6,89,65,41,30.16,30.06,8,0,10,0.01
2013-6-7,59.6,56.2,54.1,58.2,54.5,52.5,96,94,88,30.07,29.75,12,1,13,2.79
2013-6-8,76.7,63.0,53.6,63.2,57.1,52.5,96,83,60,29.96,29.56,11,1,12,0.73
2013-6-9,78.6,68.3,56.6,59.1,55.0,50.5,92,65,38,30.12,29.96,10,0,13,0.00
2013-6-10,69.9,62.3,56.3,61.5,57.4,53.7,95,85,60,30.16,29.97,8,1,10,0.46
2013-6-11,68.4,60.0,55.9,61.3,57.7,54.3,96,92,77,29.98,29.51,10,1,10,1.56
2013-6-12,68.9,62.7,56.0,57.2,53.2,50.0,96,73,52,29.77,29.53,21,1,21,0.01
2013-6-13,64.5,56.7,51.0,57.4,52.7,49.0,94,87,66,29.79,29.61,10,1,10,0.38
2013-6-14,69.6,59.2,51.4,58.1,52.0,44.8,95,79,51,29.73,29.57,17,2,17,1.22
2013-6-15,77.0,66.6,55.7,54.6,47.3,37.6,89,54,27,29.90,29.71,12,1,12,0.00
2013-6-16,75.4,66.3,56.0,62.3,54.0,46.3,86,66,43,29.91,29.69,5,0,5,0.00
2013-6-17,84.0,71.1,60.7,63.2,59.4,52.6,94,70,37,29.86,29.73,18,0,24,0.09
2013-6-18,79.4,64.4,57.6,63.8,58.8,51.2,96,84,48,29.90,29.80,16,1,16,0.20
2013-6-19,72.7,63.8,54.8,56.7,52.1,46.2,95,69,40,30.11,29.86,12,1,12,0.06
2013-6-20,77.4,66.7,52.5,57.3,51.3,43.0,93,61,31,30.23,30.11,7,0,7,0.00
2013-6-21,81.8,69.5,57.6,64.5,57.8,52.4,87,68,49,30.24,30.15,6,0,7,0.00
2013-6-22,81.8,70.7,62.1,61.3,56.4,51.6,76,61,40,30.20,30.11,7,0,7,0.00
2013-6-23,87.6,74.9,63.7,69.3,63.5,56.0,86,69,48,30.14,30.01,7,0,11,0.00
2013-6-24,90.7,79.5,68.8,71.5,68.3,64.6,92,71,45,30.01,29.87,7,0,14,0.01
2013-6-25,89.7,78.9,67.3,69.5,66.3,62.6,92,67,45,29.92,29.73,7,0,8,0.01
2013-6-26,86.1,76.2,68.6,71.4,67.7,65.4,91,76,52,29.82,29.71,7,0,11,0.06
2013-6-27,71.3,66.8,63.7,66.4,64.0,62.1,96,91,83,29.83,29.72,7,1,7,0.01
2013-6-28,78.6,70.4,64.0,71.4,67.4,62.8,96,90,69,29.72,29.48,7,0,9,0.31
2013-6-29,79.8,73.1,69.4,69.8,67.7,64.9,96,84,62,29.70,29.49,7,0,9,0.12
2013-6-30,79.2,73.3,70.4,71.2,68.3,66.3,94,85,72,29.92,29.70,7,0,7,0.13
2013-7-1,74.9,71.5,70.4,72.4,70.0,68.6,96,95,91,30.08,29.92,3,0,3,0.01
2013-7-2,82.4,75.3,72.1,72.6,70.7,69.4,94,86,70,30.17,30.07,7,0,8,0.00
2013-7-3,86.3,77.4,70.6,72.5,70.3,68.3,94,80,60,30.20,30.12,8,0,8,0.00
2013-7-4,89.7,81.1,72.0,74.7,71.9,69.7,95,75,55,30.20,30.09,6,0,6,0.00
2013-7-5,91.6,81.9,74.4,74.4,71.4,68.3,86,72,48,30.15,30.03,6,0,8,0.00
2013-7-6,90.3,81.6,75.3,73.7,70.9,67.4,85,71,49,30.06,29.96,12,0,12,0.00
2013-7-7,92.5,80.7,72.8,76.0,71.2,67.8,89,74,50,30.00,29.88,7,0,7,0.02
2013-7-8,88.6,78.1,67.1,73.6,70.1,65.3,94,78,49,30.02,29.89,11,0,12,0.28
2013-7-9,76.8,70.0,65.5,69.1,65.7,62.2,96,87,61,30.07,29.99,6,0,6,0.01
2013-7-10,82.6,74.4,67.6,72.9,69.7,65.4,96,86,70,30.02,29.76,8,0,8,0.00
2013-7-11,78.3,74.7,70.9,72.7,70.9,68.2,94,88,78,29.88,29.74,6,0,6,0.36
2013-7-12,73.0,69.7,66.1,68.4,62.0,58.4,93,77,65,30.15,29.87,14,2,16,0.00
2013-7-13,75.4,70.1,65.2,71.6,66.9,61.0,94,90,81,30.27,30.15,6,0,6,0.06
2013-7-14,88.8,79.3,71.8,74.8,71.2,68.6,96,78,53,30.29,30.17,6,0,7,0.00
2013-7-15,91.2,81.4,73.3,72.9,70.8,67.2,92,72,47,30.18,30.08,2,0,11,0.00
2013-7-16,91.6,81.9,71.5,72.0,67.8,62.8,91,65,39,30.14,30.07,12,1,12,0.00
2013-7-17,91.6,81.0,70.8,72.7,69.6,66.9,93,70,45,30.15,30.00,3,0,3,0.00
2013-7-18,94.3,85.6,75.8,75.0,71.3,64.9,83,64,40,30.02,29.92,11,1,12,0.00
2013-7-19,94.3,84.2,74.9,76.1,73.3,70.3,91,72,48,29.93,29.72,11,0,11,0.00
2013-7-20,92.1,82.0,73.5,76.2,73.4,70.3,93,77,50,29.78,29.63,7,0,10,0.70
2013-7-21,82.4,75.9,69.4,70.7,65.7,62.8,92,72,55,29.94,29.78,10,0,10,0.00
2013-7-22,84.3,74.2,67.1,68.5,66.4,63.6,94,78,51,29.96,29.83,10,1,11,0.00
2013-7-23,83.8,73.5,69.9,75.9,70.6,66.6,96,91,68,29.83,29.52,8,0,12,1.84
2013-7-24,83.4,76.2,69.4,72.9,67.6,55.4,96,76,55,29.90,29.54,11,0,14,0.00
2013-7-25,69.4,60.8,58.7,57.9,54.5,49.2,95,80,61,30.05,29.90,13,3,14,0.20
2013-7-26,70.4,63.4,59.3,65.6,61.2,57.9,95,93,81,30.01,29.90,14,2,14,0.33
2013-7-27,82.0,70.9,61.2,68.5,63.2,58.4,96,79,45,30.03,29.96,5,0,5,0.00
2013-7-28,84.0,72.8,67.1,69.6,66.8,63.8,95,83,52,29.97,29.91,7,0,7,0.02
2013-7-29,81.6,73.3,66.3,70.9,68.0,64.2,95,84,67,30.00,29.92,6,0,7,0.00
2013-7-30,80.9,71.5,62.9,65.2,58.4,55.2,86,65,44,30.07,29.99,12,0,12,0.00
2013-7-31,81.2,70.4,60.5,62.4,58.3,0.0,88,67,41,30.10,30.02,10,0,10,0.00
2013-8-1,79.6,69.7,62.3,65.2,60.9,57.6,93,75,49,30.02,29.84,6,0,7,0.01
2013-8-2,81.2,71.0,63.7,67.6,62.2,57.8,95,76,46,29.85,29.76,7,0,10,0.11
2013-8-3,75.6,70.0,65.2,64.5,62.0,58.8,91,76,63,29.84,29.75,6,0,7,0.00
2013-8-4,79.0,68.2,60.1,60.8,55.8,49.5,84,66,38,29.85,29.73,9,0,12,0.02
2013-8-5,74.2,64.3,56.2,55.2,49.2,38.4,83,62,28,30.01,29.85,10,1,13,0.00
2013-8-6,78.6,65.7,51.0,57.8,50.8,44.7,92,63,33,30.11,30.01,6,0,7,0.00
2013-8-7,77.6,66.0,53.3,60.1,53.7,44.6,95,69,31,30.16,30.08,8,0,13,0.00
2013-8-8,77.7,70.7,63.4,68.7,64.8,56.0,92,82,72,30.09,29.98,6,0,6,0.00
2013-8-9,74.0,72.5,70.6,72.8,70.3,68.0,96,93,85,30.00,29.73,10,0,10,1.83
2013-8-10,81.4,73.1,63.1,71.8,61.6,50.8,96,70,42,29.97,29.75,10,0,11,0.00
2013-8-11,77.9,67.7,55.7,60.7,54.2,48.1,90,64,39,30.05,29.96,10,0,10,0.00
2013-8-12,80.3,69.7,59.9,63.8,59.3,53.6,93,72,40,29.99,29.88,3,0,4,0.00
2013-8-13,72.0,67.0,62.7,67.2,63.4,60.3,94,88,72,29.89,29.65,7,0,8,0.01
2013-8-14,71.5,66.0,60.2,62.9,54.0,49.5,94,67,47,29.93,29.63,11,1,14,0.00
2013-8-15,75.4,65.3,54.8,56.6,51.6,45.1,85,64,38,30.08,29.93,10,0,10,0.00
2013-8-16,77.0,67.0,54.7,59.0,54.2,49.6,90,66,40,30.16,30.07,6,0,6,0.00
2013-8-17,78.5,69.1,57.5,61.5,56.4,52.0,90,66,41,30.23,30.16,7,0,8,0.00
2013-8-18,78.3,66.8,57.6,63.1,59.0,50.7,96,78,39,30.24,30.05,3,0,5,0.02
2013-8-19,79.6,69.8,58.9,63.7,59.4,54.8,89,71,46,30.05,29.92,6,0,8,0.00
2013-8-20,83.8,73.8,64.3,64.8,61.3,54.5,87,67,38,30.08,29.94,5,0,6,0.00
2013-8-21,85.7,74.7,61.0,66.2,62.6,58.6,92,68,45,30.12,29.99,6,0,7,0.00
2013-8-22,83.8,73.8,65.8,70.9,67.0,62.1,93,80,59,30.01,29.80,5,0,7,0.00
2013-8-23,78.8,71.4,62.0,67.7,60.3,51.0,93,69,40,30.07,29.78,13,2,15,0.00
2013-8-24,73.3,64.2,55.0,52.8,47.3,34.7,89,58,25,30.30,30.07,13,1,13,0.00
2013-8-25,80.7,67.1,51.9,58.3,52.1,44.6,95,63,30,30.33,30.16,6,0,6,0.00
2013-8-26,77.9,70.2,64.0,65.8,61.0,55.5,84,73,55,30.16,29.84,6,0,7,0.00
2013-8-27,79.4,71.3,64.5,69.1,66.4,62.7,96,86,61,29.86,29.79,11,0,11,0.41
2013-8-28,83.8,72.4,61.3,68.2,63.8,59.7,96,77,45,29.91,29.80,11,0,11,0.00
2013-8-29,66.1,63.3,60.5,63.7,60.7,56.9,95,91,87,30.02,29.91,13,2,13,0.00
2013-8-30,78.6,68.1,60.1,67.4,62.1,56.5,92,82,64,29.99,29.80,5,0,5,0.00
2013-8-31,79.2,73.2,67.4,71.4,69.1,65.8,96,87,74,29.80,29.75,4,0,4,0.00
2013-9-1,78.1,72.4,68.3,73.9,70.2,66.8,96,93,81,29.86,29.77,3,0,6,0.63
2013-9-2,77.2,72.4,68.1,72.9,70.4,66.9,97,93,84,29.83,29.68,7,0,7,0.29
2013-9-3,79.6,71.7,63.4,70.8,67.2,59.2,96,86,62,29.79,29.65,6,0,6,0.00
2013-9-4,77.4,68.1,58.1,60.4,57.1,54.1,92,70,45,29.89,29.78,8,0,8,0.00
2013-9-5,68.3,62.8,53.5,63.0,56.6,50.8,95,81,54,30.10,29.84,12,1,13,0.03
2013-9-6,66.3,56.5,45.7,51.9,43.5,36.5,95,65,34,30.22,30.07,9,0,10,0.00
2013-9-7,75.6,63.3,50.2,56.4,49.7,43.3,84,63,38,30.07,29.83,5,0,5,0.00
2013-9-8,75.1,64.8,51.1,61.0,52.6,40.3,92,66,36,30.06,29.72,17,1,17,0.00
2013-9-9,67.3,57.2,44.5,51.7,45.1,38.3,92,66,38,30.21,30.06,6,0,6,0.00
2013-9-10,74.6,66.1,55.4,67.9,60.9,49.4,93,83,74,30.14,30.00,8,0,10,0.01
2013-9-11,92.1,78.8,68.1,75.2,70.4,66.1,97,78,43,30.05,29.93,6,0,6,0.00
2013-9-12,84.5,74.8,69.1,71.9,69.0,67.3,95,83,61,29.95,29.65,8,0,8,0.44
2013-9-13,77.9,68.7,60.2,68.9,64.3,55.3,97,87,60,29.71,29.53,13,0,13,0.17
2013-9-14,66.1,60.0,52.3,55.6,52.7,50.3,94,77,61,30.03,29.71,8,0,10,0.01
2013-9-15,69.3,58.7,48.5,52.3,49.5,47.2,96,74,48,30.14,30.03,6,0,6,0.00
2013-9-16,65.3,57.2,48.8,55.4,50.3,38.3,92,78,61,30.20,29.99,14,1,14,0.02
2013-9-17,59.8,50.1,40.6,44.5,36.7,28.7,93,63,38,30.39,30.21,17,1,17,0.00
2013-9-18,70.8,55.1,41.6,50.5,43.9,38.5,96,71,36,30.31,30.11,3,0,4,0.00
2013-9-19,76.3,61.8,46.1,56.6,50.0,43.9,94,68,36,30.12,30.00,4,0,7,0.00
2013-9-20,78.1,62.9,47.1,57.7,52.4,45.7,97,73,36,30.05,29.96,5,0,5,0.00
2013-9-21,73.5,65.3,56.5,65.4,60.3,54.8,97,85,61,30.00,29.69,10,0,11,0.00
2013-9-22,69.3,63.6,51.1,66.6,57.2,45.8,96,81,53,29.79,29.58,8,0,9,0.52
2013-9-23,62.0,53.1,45.4,46.3,42.0,37.5,85,67,47,29.98,29.79,13,1,17,0.00
2013-9-24,65.5,55.4,48.5,47.6,42.8,39.7,77,64,39,29.97,29.77,12,0,14,0.00
2013-9-25,66.6,61.3,57.0,51.4,47.4,45.0,66,61,53,29.94,29.83,12,1,16,0.00
2013-9-26,65.0,62.5,56.3,50.5,48.5,41.3,69,60,53,30.08,29.94,11,1,11,0.00
2013-9-27,63.9,61.8,59.0,52.5,50.5,48.9,73,67,62,30.22,30.08,13,2,13,0.00
2013-9-28,70.6,63.2,49.9,54.1,50.7,45.0,92,65,46,30.29,30.22,11,2,12,0.00
2013-9-29,67.1,54.7,43.9,54.8,46.9,41.1,97,78,40,30.23,30.08,11,0,11,0.00
2013-9-30,66.0,55.8,47.1,52.7,48.6,42.5,96,80,43,30.08,29.92,8,0,8,0.00
2013-10-1,74.9,59.4,45.5,57.9,50.4,43.9,96,76,38,29.93,29.81,14,0,14,0.00
2013-10-2,77.4,66.9,56.0,60.1,56.3,51.9,92,70,51,29.92,29.79,9,0,11,0.00
2013-10-3,76.5,63.9,54.5,55.1,49.6,40.6,86,63,31,30.05,29.92,5,0,7,0.00
2013-10-4,63.2,55.6,49.8,57.3,52.6,46.3,96,90,63,30.05,30.00,6,0,6,1.14
2013-10-5,68.1,60.7,56.6,60.0,56.6,52.7,96,87,70,30.09,30.01,5,0,6,0.02
2013-10-6,59.2,57.4,55.6,56.6,55.5,54.2,96,93,89,30.17,30.07,7,0,8,0.26
2013-10-7,74.7,65.4,56.0,68.7,62.5,54.3,97,90,77,30.09,29.79,14,1,15,0.10
2013-10-8,64.3,56.8,46.1,54.3,45.4,38.5,86,68,39,30.33,29.87,12,1,16,0.00
2013-10-9,60.9,51.7,43.1,45.1,41.8,39.5,92,71,47,30.42,30.32,14,2,16,0.00
2013-10-10,62.7,54.0,44.9,52.9,48.6,43.3,95,83,70,30.32,30.18,9,1,10,0.00
2013-10-11,66.3,58.1,50.2,55.1,50.0,43.5,95,75,52,30.12,30.05,13,2,13,0.00
2013-10-12,63.1,55.6,50.1,55.1,50.7,46.7,93,84,72,30.33,30.10,18,2,18,0.00
2013-10-13,59.3,51.6,41.3,48.5,45.4,39.7,94,80,60,30.40,30.32,12,1,13,0.00
2013-10-14,62.9,49.6,37.3,48.0,40.9,31.6,96,76,31,30.38,30.22,5,0,6,0.00
2013-10-15,68.6,56.8,45.5,51.2,47.6,43.9,95,74,45,30.23,30.13,8,0,8,0.00
2013-10-16,61.0,53.6,46.0,54.8,50.7,44.4,97,90,77,30.14,29.88,7,0,8,0.00
2013-10-17,69.9,60.3,51.1,59.0,56.1,50.0,96,87,66,29.89,29.69,6,0,6,0.01
2013-10-18,66.0,60.2,48.5,60.7,50.0,41.6,95,71,45,29.88,29.59,11,0,13,0.02
2013-10-19,57.3,44.9,39.2,45.1,39.6,36.2,92,82,57,29.95,29.88,0,0,0,0.00
2013-10-20,61.0,53.0,42.9,50.9,39.8,29.7,92,64,31,30.00,29.67,4,0,16,0.00
2013-10-21,66.0,52.9,38.8,44.0,38.3,34.1,84,60,33,30.09,29.98,2,0,7,0.00
2013-10-22,68.3,52.5,39.8,50.9,43.0,37.7,95,72,40,29.97,29.67,5,0,11,0.00
2013-10-23,50.1,44.8,37.6,38.1,34.5,29.9,91,69,46,29.77,29.56,6,0,7,0.00
2013-10-24,52.3,44.4,37.5,35.5,29.0,20.9,84,57,30,29.87,29.61,11,0,11,0.00
2013-10-25,48.5,41.5,35.0,32.8,28.2,25.1,76,60,41,30.14,29.87,10,0,11,0.00
2013-10-26,54.2,42.9,27.8,36.1,29.3,24.7,91,62,32,30.14,29.85,16,1,18,0.00
2013-10-27,55.6,46.8,39.5,40.5,33.4,27.2,92,62,37,30.05,29.80,10,1,13,0.04
2013-10-28,58.9,45.0,32.1,35.8,30.6,23.6,88,60,35,30.31,30.05,13,1,13,0.00
2013-10-29,48.5,38.3,30.0,28.8,24.3,18.7,91,59,31,30.42,30.31,8,0,8,0.00
2013-10-30,54.4,41.3,30.0,41.7,37.0,27.7,94,86,59,30.35,30.17,5,0,5,0.01
2013-10-31,62.1,48.9,33.7,59.0,46.1,32.4,96,90,80,30.22,29.78,9,1,10,0.03
2013-11-1,68.9,63.5,59.0,62.2,56.9,52.5,93,79,65,29.78,29.47,19,2,19,0.13
2013-11-2,65.3,56.4,48.8,52.6,44.9,36.0,91,68,34,29.69,29.56,9,0,9,0.00
2013-11-3,52.6,41.8,32.4,45.0,29.6,13.1,89,64,35,30.40,29.68,14,3,16,0.00
2013-11-4,41.3,32.9,25.4,22.5,17.7,11.3,87,56,30,30.69,30.40,13,2,16,0.00
2013-11-5,49.2,37.1,24.5,32.2,26.1,21.5,90,67,39,30.70,30.51,6,0,6,0.00
2013-11-6,59.6,48.1,35.0,50.2,40.5,30.6,92,76,47,30.50,30.03,10,1,11,0.00
2013-11-7,65.6,54.0,39.5,58.1,50.0,33.3,94,87,68,30.03,29.65,11,1,12,0.27
2013-11-8,48.2,39.3,31.5,33.5,25.9,19.9,83,60,37,30.09,29.80,13,1,17,0.00
2013-11-9,43.9,36.9,28.8,28.7,23.6,19.2,79,60,37,30.20,30.02,6,0,11,0.00
2013-11-10,53.8,45.0,37.9,42.4,35.6,28.2,92,70,51,30.02,29.71,14,0,20,0.09
2013-11-11,51.3,45.9,37.8,35.4,27.4,21.3,62,49,31,30.08,29.85,12,1,18,0.00
2013-11-12,49.5,35.8,27.2,37.9,24.6,13.8,92,65,50,30.18,29.87,17,1,18,0.10
2013-11-13,35.6,28.7,23.0,15.4,12.8,8.7,71,52,34,30.27,30.17,13,1,17,0.00
2013-11-14,50.2,38.9,26.7,23.0,17.8,13.8,60,44,27,30.17,30.04,10,0,13,0.00
2013-11-15,59.6,43.8,27.8,36.0,24.3,14.2,86,51,20,30.19,30.11,10,0,10,0.00
2013-11-16,58.7,45.0,32.9,36.3,31.0,23.5,90,62,26,30.31,30.18,6,0,7,0.00
2013-11-17,59.6,47.7,32.4,57.9,44.8,29.9,96,90,69,30.30,29.81,8,0,10,0.09
2013-11-18,65.0,58.9,47.4,60.8,46.6,30.5,97,67,35,29.81,29.51,17,2,17,0.26
2013-11-19,47.4,39.7,31.2,31.0,21.5,16.6,57,48,36,30.27,29.64,20,2,20,0.00
2013-11-20,40.1,31.3,24.1,19.2,13.7,6.1,78,51,25,30.62,30.27,14,2,17,0.00
2013-11-21,26.4,25.1,23.5,18.3,16.1,13.4,76,69,58,30.64,30.62,1,0,2,0.00
2013-11-22,49.2,46.8,26.4,48.1,45.3,14.0,96,94,59,30.63,29.79,4,0,4,0.11
2013-11-23,48.9,40.6,28.7,45.8,25.7,11.9,93,57,30,29.87,29.76,16,1,16,0.00
2013-11-24,28.5,23.5,19.7,16.4,2.6,-7.5,62,41,22,30.18,29.79,22,2,22,0.00
2013-11-25,32.4,24.5,15.2,17.6,2.2,-9.3,58,39,18,30.35,30.18,12,0,18,0.00
2013-11-26,41.8,36.9,30.6,38.8,23.7,15.6,96,61,40,30.29,29.98,8,0,8,0.16
2013-11-27,60.7,51.4,35.5,59.1,49.8,31.1,97,94,84,29.98,29.18,21,3,25,2.03
2013-11-28,36.5,29.8,23.2,31.1,15.0,5.9,84,55,35,30.42,29.43,14,1,14,0.00
2013-11-29,34.0,27.4,21.4,16.1,10.5,-1.4,65,50,31,30.71,30.42,9,0,10,0.00
2013-11-30,33.5,25.1,15.9,21.6,13.6,5.8,79,62,40,30.76,30.41,7,0,7,0.00
2013-12-1,43.2,35.2,29.3,42.1,32.6,21.4,97,90,72,30.41,29.97,7,0,7,0.21
2013-12-2,39.5,36.8,35.3,38.8,35.9,34.3,98,97,94,29.97,29.88,8,0,8,0.00
2013-12-3,47.6,37.7,33.2,36.9,33.5,30.3,97,86,56,29.92,29.81,10,1,12,0.00
2013-12-4,44.9,35.0,28.8,30.7,28.6,26.2,92,79,53,30.17,29.92,10,0,10,0.00
2013-12-5,53.5,43.5,29.8,52.7,41.4,28.0,98,92,81,30.17,29.89,10,1,11,0.01
2013-12-6,55.4,48.7,35.8,54.8,45.6,34.0,98,89,74,30.09,29.83,12,1,12,0.38
2013-12-7,38.5,33.0,26.4,34.0,27.5,19.7,95,81,59,30.43,30.04,13,1,14,0.13
2013-12-8,30.0,27.9,22.7,20.4,15.7,13.4,77,60,50,30.57,30.42,5,0,6,0.00
2013-12-9,38.5,33.0,25.7,37.7,31.4,16.8,98,94,61,30.46,29.85,6,0,7,0.26
2013-12-10,33.5,30.0,23.3,32.5,28.7,18.6,97,95,82,30.00,29.75,6,0,6,0.02
2013-12-11,29.3,25.2,21.0,19.1,17.4,15.9,86,72,60,30.21,30.00,7,1,11,0.00
2013-12-12,25.3,19.7,14.0,16.9,7.7,0.0,84,61,36,30.26,30.06,16,1,16,29.83
2013-12-13,29.3,22.5,16.2,16.2,10.1,4.8,84,59,45,30.34,29.99,10,1,12,98.83
2013-12-14,27.6,16.1,10.9,26.4,6.2,-7.4,95,66,39,30.57,30.08,11,2,13,29.77
2013-12-15,37.0,28.9,23.0,36.2,26.2,19.4,97,90,74,30.08,29.35,19,2,19,29.91
2013-12-16,28.2,23.0,10.7,20.5,11.1,4.4,85,61,38,30.19,29.74,10,1,12,0.00
2013-12-17,19.9,13.4,4.8,17.2,9.7,1.3,90,85,71,30.25,29.90,16,1,16,0.00
2013-12-18,33.5,25.2,16.1,20.8,17.7,12.8,89,74,52,30.07,29.83,13,1,14,0.01
2013-12-19,44.3,33.8,24.8,26.6,22.2,18.1,81,63,44,30.09,29.93,14,1,16,0.11
2013-12-20,52.3,39.9,27.6,37.9,31.6,24.8,90,73,52,30.09,29.89,7,0,8,0.29
2013-12-21,58.4,48.3,41.8,48.8,43.6,35.1,95,84,67,29.95,29.84,7,1,10,0.02
2013-12-22,63.5,54.6,38.0,58.8,51.0,36.7,95,88,76,29.96,29.73,18,2,18,0.00
2013-12-23,39.2,36.1,32.9,38.7,35.3,32.1,98,97,95,30.05,29.93,11,1,11,0.46
2013-12-24,39.1,32.1,26.3,38.6,23.4,14.7,98,71,48,30.17,30.01,12,1,13,0.01
2013-12-25,26.3,19.0,14.3,15.1,3.9,-1.6,80,52,37,30.52,30.17,17,1,18,0.00
2013-12-26,35.5,26.4,15.2,32.0,21.5,9.4,92,82,68,30.48,30.05,4,0,5,0.00
2013-12-27,34.4,28.5,25.0,21.0,18.6,16.2,83,67,48,30.26,30.17,7,0,7,0.01
2013-12-28,47.4,34.0,23.2,28.0,23.2,18.6,85,66,39,30.20,29.98,13,1,14,0.00
2013-12-29,42.8,36.8,28.8,40.5,33.0,24.6,96,86,69,30.01,29.33,20,1,20,0.85
2013-12-30,39.3,32.6,19.9,35.0,23.4,9.6,94,71,41,30.12,29.48,14,1,18,0.00
2013-12-31,25.4,19.5,14.3,13.1,6.3,-0.8,71,56,40,30.17,30.00,10,1,10,0.00
2014-1-1,27.6,21.3,14.0,13.3,7.6,2.3,73,56,37,30.35,30.17,8,0,13,0.00
2014-1-2,22.1,14.9,1.8,16.5,10.8,-2.7,87,84,56,30.32,29.77,20,4,28,0.00